User: anonymous   Login
Location: Utrecht
(52.0907°N, 5.1214°E)
Time: 12:54:52
(UTC+02:00)
Language:

ESTCUBE 1 - Orbit

View from above orbital plane
View from above orbital plane
View from above satellite
View from above satellite

Ground track
Ground track

The orbit data is extracted from the following two-line orbital elements,

1 39161U 13021C   22179.76732120  .00000810  00000-0  13381-3 0  9994
2 39161  97.9071 256.7093 0010213  33.2756 326.9079 14.72972766491135
Epoch (UTC): 28 June 2022 18:24:56
Eccentricity: 0.0010213
inclination: 97.9071°
perigee height: 644 km
apogee height: 659 km
right ascension of ascending node: 256.7093°
argument of perigee: 33.2756°
revolutions per day: 14.72972766
mean anomaly at epoch: 326.9079°
orbit number at epoch: 49113

The dashed part of the orbit path shows where the satellite is in the earth's shadow,  

DLR